EW4557 Weather Reports


Display with metric or nautical units.
time (UTC)temp
F
wind
direction
speed
MPH
gust
MPH
rain 1hr
in
rain 24hr
in
rain mn
in
humidity
%
barometer
mb
20260901162515 85 0 3.0 8.0 0.00 0.00 0.00 44 1021.9
20260901161636 84 0 3.0 6.0 0.00 0.00 0.00 45 1021.9
20260901160515 83 0 2.0 9.0 0.00 0.00 0.00 46 1021.7
20260901155515 82 0 4.0 12.0 0.00 0.00 0.00 46 1021.6
20260901154515 82 0 3.0 9.0 0.00 0.00 0.00 46 1021.5
20260901153635 82 0 2.0 5.0 0.00 0.00 0.00 46 1021.8
20260901152635 81 0 3.0 6.0 0.00 0.00 0.00 46 1021.7
20260901151515 80 0 3.0 8.0 0.00 0.00 0.00 47 1021.7
20260901150515 79 0 2.0 10.0 0.00 0.00 0.00 48 1021.7
20260901145515 79 0 2.0 9.0 0.00 0.00 0.00 47 1021.7
20260901144515 78 0 2.0 4.0 0.00 0.00 0.00 48 1021.5
20260901143555 78 0 2.0 4.0 0.00 0.00 0.00 48 1021.8
20260901140555 73 0.0 0.0 0.00 0.00 0.00 54 1021.3
20260901135515 71 0.0 1.0 0.00 0.00 0.00 58 1021.2
20260901134555 68 0 0.0 1.0 0.00 0.00 0.00 61 1020.8
20260901133515 67 0 0.0 2.0 0.00 0.00 0.00 64 1020.4
20260901132635 65 0.0 0.0 0.00 0.00 0.00 67 1019.9
20260901131515 64 0.0 0.0 0.00 0.00 0.00 66 1019.6
20260901130515 63 0.0 0.0 0.00 0.00 0.00 66 1019.5
20260901125515 63 0.0 0.0 0.00 0.00 0.00 63 1019.4
20260901123635 64 0.0 1.0 0.00 0.00 0.00 63 1019.6
20260901122515 64 0 0.0 1.0 0.00 0.00 0.00 62 1019.5
20260901121515 65 0.0 0.0 0.00 0.00 0.00 62 1019.7
20260901120635 65 0.0 2.0 0.00 0.00 0.00 62 1019.7
20260901115635 65 0.0 0.0 0.00 0.00 0.00 62 1019.9
20260901113555 66 0.0 0.0 0.00 0.00 0.00 61 1020.2
20260901112555 66 0.0 0.0 0.00 0.00 0.00 60 1020.0
20260901111635 66 0.0 0.0 0.00 0.00 0.00 61 1019.9
20260901110557 66 0.0 0.0 0.00 0.00 0.00 60 1020.2
20260901105517 66 0.0 0.0 0.00 0.00 0.00 61 1020.1
20260901104557 66 0.0 0.0 0.00 0.00 0.00 59 1020.0
20260901103557 67 0.0 0.0 0.00 0.00 0.00 59 1019.9
20260901102557 66 0.0 2.0 0.00 0.00 0.00 60 1019.8
20260901101516 65 0 0.0 2.0 0.00 0.00 0.00 61 1019.7
20260901095517 64 0.0 0.0 0.00 0.00 0.00 59 1019.4
20260901094637 64 0.0 0.0 0.00 0.00 0.00 59 1019.4
20260901093557 65 0.0 0.0 0.00 0.00 0.00 57 1019.5
20260901092556 65 0.0 0.0 0.00 0.00 0.00 58 1019.6
20260901091517 65 0.0 0.0 0.00 0.00 0.00 57 1019.7
20260901090556 66 0.0 0.0 0.00 0.00 0.00 56 1019.7
20260901085556 66 0.0 0.0 0.00 0.00 0.00 55 1019.7
20260901084516 67 0.0 0.0 0.00 0.00 0.00 55 1019.7
20260901083516 67 0.0 0.0 0.00 0.00 0.00 55 1019.7
20260901082636 67 0.0 0.0 0.00 0.00 0.00 54 1019.7
20260901081516 68 0.0 0.0 0.00 0.00 0.00 53 1019.8
20260901075516 69 0.0 0.0 0.00 0.00 0.00 51 1019.9
20260901074556 69 0.0 0.0 0.00 0.00 0.00 51 1020.0
20260901073516 70 0.0 0.0 0.00 0.00 0.00 51 1020.0
20260901071516 71 0.0 0.0 0.00 0.00 0.00 49 1020.1
20260901070636 72 0.0 0.0 0.00 0.00 0.00 48 1020.1
20260901065516 72 0.0 0.0 0.00 0.00 0.00 47 1020.1
20260901064556 73 0.0 0.0 0.00 0.00 0.00 46 1020.2
20260901063556 73 0 1.0 3.0 0.00 0.00 0.00 46 1020.2
20260901062516 74 0 0.0 2.0 0.00 0.00 0.00 45 1020.1
20260901061516 75 0 1.0 2.0 0.00 0.00 0.00 44 1020.2
20260901060516 76 0 0.0 1.0 0.00 0.00 0.00 43 1020.2
20260901055515 77 0 0.0 1.0 0.00 0.00 0.00 41 1020.0
20260901054515 78 0.0 0.0 0.00 0.00 0.00 40 1020.0
20260901053515 79 0.0 1.0 0.00 0.00 0.00 40 1020.1
20260901052515 79 0 0.0 2.0 0.00 0.00 0.00 39 1020.1
20260901051515 80 0 0.0 3.0 0.00 0.00 0.00 39 1020.2
20260901050555 81 0 0.0 1.0 0.00 0.00 0.00 39 1020.1
20260901045515 82 0 1.0 2.0 0.00 0.00 0.00 37 1020.2
20260901044555 82 0 1.0 4.0 0.00 0.00 0.00 37 1020.0
20260901043635 82 0 0.0 6.0 0.00 0.00 0.00 37 1019.8
20260901042555 82 0 2.0 4.0 0.00 0.00 0.00 37 1019.4
20260901041635 82 0 1.0 6.0 0.00 0.00 0.00 36 1019.1
20260901040635 82 0 3.0 9.0 0.00 0.00 0.00 36 1018.9
20260901035515 83 0 2.0 5.0 0.00 0.00 0.00 36 1018.8
20260901034515 83 0 2.0 6.0 0.00 0.00 0.00 35 1018.5
20260901033555 83 0 3.0 8.0 0.00 0.00 0.00 35 1018.2
20260901032550 84 0 3.0 9.0 0.00 0.00 0.00 34 1018.3
20260901031515 84 0 3.0 10.0 0.00 0.00 0.00 34 1018.1
20260901030515 85 0 2.0 11.0 0.00 0.00 0.00 33 1017.7
20260901025515 85 0 3.0 9.0 0.00 0.00 0.00 33 1017.5
20260901024555 85 0 3.0 9.0 0.00 0.00 0.00 32 1017.1
20260901023515 86 0 3.0 8.0 0.00 0.00 0.00 32 1016.9
20260901022515 86 0 4.0 12.0 0.00 0.00 0.00 31 1016.7
20260901021515 86 0 3.0 11.0 0.00 0.00 0.00 30 1016.2
20260901020555 87 0 2.0 6.0 0.00 0.00 0.00 30 1016.2
20260901015515 87 0 3.0 11.0 0.00 0.00 0.00 29 1015.9
20260901012557 89 0 3.0 11.0 0.00 0.00 0.00 28 1015.3
20260901011557 89 0 3.0 6.0 0.00 0.00 0.00 28 1015.2
20260901010516 90 0 2.0 8.0 0.00 0.00 0.00 28 1015.0
20260901005516 90 0 3.0 9.0 0.00 0.00 0.00 28 1015.0
20260901004517 91 0 3.0 11.0 0.00 0.00 0.00 28 1015.1
20260901003516 92 0 3.0 8.0 0.00 0.00 0.00 28 1015.3
20260901002557 93 0 3.0 9.0 0.00 0.00 0.00 28 1015.4
20260901001517 93 0 3.0 10.0 0.00 0.00 0.00 28 1015.5
20260901000556 94 0 3.0 12.0 0.00 0.00 0.00 27 1015.5
20260831235516 95 0 5.0 16.0 0.00 0.00 0.00 27 1015.8
20260831234637 95 0 2.0 11.0 0.00 0.00 0.00 27 1015.8
20260831233637 96 0 2.0 6.0 0.00 0.00 0.00 26 1016.0
20260831232516 96 0 3.0 13.0 0.00 0.00 0.00 26 1016.1
20260831231556 95 0 3.0 10.0 0.00 0.00 0.00 27 1016.0
20260831230556 96 0 2.0 8.0 0.00 0.00 0.00 26 1016.0
20260831225556 96 0 4.0 9.0 0.00 0.00 0.00 26 1015.8
20260831224636 97 0 2.0 6.0 0.00 0.00 0.00 25 1015.9
20260831223516 96 0 3.0 9.0 0.00 0.00 0.00 25 1015.9
20260831222516 97 0 3.0 9.0 0.00 0.00 0.00 26 1016.2
20260831221556 97 0 3.0 10.0 0.00 0.00 0.00 26 1016.6
20260831220516 97 0 4.0 11.0 0.00 0.00 0.00 26 1016.9
20260831214516 97 0 4.0 10.0 0.00 0.00 0.00 26 1017.2
20260831213636 97 0 4.0 10.0 0.00 0.00 0.00 26 1016.9
20260831212636 97 0 3.0 8.0 0.00 0.00 0.00 26 1017.1
20260831211636 97 0 2.0 10.0 0.00 0.00 0.00 27 1017.5
20260831210556 97 0 3.0 12.0 0.00 0.00 0.00 26 1017.6
20260831205556 96 0 4.0 11.0 0.00 0.00 0.00 26 1017.9
20260831204516 96 0 3.0 6.0 0.00 0.00 0.00 28 1018.2
20260831203636 95 0 4.0 10.0 0.00 0.00 0.00 28 1018.4
20260831202516 95 0 4.0 9.0 0.00 0.00 0.00 31 1018.8
20260831200516 94 0 4.0 12.0 0.00 0.00 0.00 31 1019.3
20260831195516 94 0 3.0 6.0 0.00 0.00 0.00 32 1019.3
20260831194516 93 0 3.0 8.0 0.00 0.00 0.00 32 1019.4
20260831193516 93 0 3.0 6.0 0.00 0.00 0.00 33 1019.3
20260831190516 92 0 4.0 10.0 0.00 0.00 0.00 33 1019.7
20260831185516 91 0 3.0 10.0 0.00 0.00 0.00 34 1019.9
20260831183556 91 0 3.0 8.0 0.00 0.00 0.00 35 1020.7
20260831182556 90 0 3.0 8.0 0.00 0.00 0.00 37 1020.5
20260831181516 91 0 5.0 10.0 0.00 0.00 0.00 36 1020.6
20260831180516 90 0 4.0 11.0 0.00 0.00 0.00 36 1020.8
20260831175516 90 0 3.0 10.0 0.00 0.00 0.00 36 1020.7
20260831174556 89 0 5.0 9.0 0.00 0.00 0.00 37 1020.7
20260831172515 89 0 1.0 6.0 0.00 0.00 0.00 38 1020.9
20260831171636 88 0 3.0 5.0 0.00 0.00 0.00 39 1021.0
20260831170515 88 0 4.0 8.0 0.00 0.00 0.00 39 1020.9